STARLINK-11486, 62467

Orbit data source: Space-Track

STARLINK-11486, 62467 is a payload satellite owned by SpaceX/Seattle (US) in LEO that was launched on Tue, 31 Dec 2024 UTC via an FALCON 9 launch vehicle from the Air Force Eastern Test Range (AFETR). Payloads include a variety of satellites, spacecraft, and rockets equipped with specific instruments for various scientific and technological missions. These include communications satellites like Starlink; space stations such as the ISS; scientific satellites like the Hubble; Earth observation satellites from companies like Planet Labs, Umbra, and HawkEye 360; GPS; miniature CubeSats for education and research; and military/defense satellites.

Loading next visibility...
STARLINK-11486 details
Identifier
62467, 2024-254F
Orbit
LEO
Last TLE update23 hours ago
Origin
Flag of USSpaceX/Seattle (US)
ManufacturerSpaceX/Seattle
MissionOperational Commercial Communications
Bus & MotorSTARLINK V2M, Unknown motor
Mass730 kg wet, ~700 kg dry
Launch date (UTC)
2024-12-31 (1 month ago)
Launch vehicle
FALCON 9
Launch site
Air Force Eastern Test Range (AFETR)
Object type
Payload
Rocket body
Debris
Shape & HBRBox + 2 Pan, 29 m
Radar Cross Section36.964 m², Large (>1 m²)

Expand to show TLE details & history

TLE from 23 hours ago
0 STARLINK-11486
1 62467U 24254F   25035.26524488  .00027538  00000-0  16016-3 0  9998
2 62467  42.9980 105.9637 0002339 275.2301  84.8302 15.77915583  6728
Epoch: 2025-02-04T06:21Z
Definitive object data (Epoch: 2025-02-04T06:21:57.157Z)
Latitude-0.00004°
Longitude-124.19752°
Altitude335.976 km
Speed7.709 km/s
True Right ascension07h 03m 51s
True Declination0° 00' 00"
Sunlit
Object was in full shadow at TLE epoch
Visualization TLE readout
Latitude-33.36626°
Longitude-174.53607°
Altitude344.095 km
Speed7.704 km/s
Apparent Right ascension23h 54m 25s
Apparent Declination-60° 27' 28"
Sunlit
Object is in daylight
Visualization observer readout
Local Sidereal Time06:57:32
Azimuth219.226° SW
Elevation-41.383°
Doppler factor1
Orbital elements
Apogee altitude339.906 km
Perigee altitude336.764 km
Semi-major axis6,716.472 km
Eccentricity0.0002339
Inclination42.998°
RAAN105.9637°
Arg. of periapsis275.2301°
True anomaly84.85689°
Mean anomaly84.8302°
Eccentric anomaly84.84355°
Mean motion3.94304 °/min
BSTAR0.00016016
Orbital period91.3 mins
Loading maneuver chart data...
Loading historical data...
Loading historical data...
Loading historical data...
Loading historical data...
Loading historical data...
Loading historical data...
Loading historical data...

STARLINK-11486 Visibility forecast

Observer location: undefined°, undefined

Span
Click to sort rows by Start time (UTC) header in descending order
Start Az.
Max El. time (UTC)
Max El. Az.
Max El.
End time (UTC)
End Az.
4 mins2025-02-05 08:26:36.804Z235.344° WSW2025-02-05 08:28:36.804Z107.956° ESE39.007°2025-02-05 08:30:36.804Z76.501° E
4 mins2025-02-05 10:02:36.804Z294.834° NW2025-02-05 10:03:36.804Z332.073° NNW33.484°2025-02-05 10:06:36.804Z69.296° E
|